Time,TemperatureF,DewpointF,PressureIn,WindDirection,WindDirectionDegrees,WindSpeedMPH,WindSpeedGustMPH,Humidity,HourlyPrecipIn,Conditions,Clouds,dailyrainin,SoftwareType,DateUTC
2013-12-30 00:07:00,35.6,35.3,29.74,NW,315,9.4,-999.0,99,-99.99,,,0.01,Acu-Link.com,2013-12-30 05:07:00,
2013-12-30 00:22:00,35.4,35.1,29.74,SW,225,3.2,-999.0,99,-99.99,,,0.01,Acu-Link.com,2013-12-30 05:22:00,
2013-12-30 00:37:00,35.2,34.9,29.74,WNW,292,4.2,-999.0,99,-99.99,,,0.01,Acu-Link.com,2013-12-30 05:37:00,
2013-12-30 00:52:00,35.1,34.8,29.75,WSW,247,3.7,-999.0,99,-99.99,,,0.01,Acu-Link.com,2013-12-30 05:52:00,
2013-12-30 01:08:00,34.7,34.4,29.75,West,270,7.3,-999.0,99,-99.99,,,0.02,Acu-Link.com,2013-12-30 06:08:00,
2013-12-30 01:23:00,34.7,34.4,29.74,West,270,8.9,-999.0,99,-99.99,,,0.02,Acu-Link.com,2013-12-30 06:23:00,
2013-12-30 01:38:00,34.7,34.4,29.74,West,270,5.8,-999.0,99,-99.99,,,0.02,Acu-Link.com,2013-12-30 06:38:00,
2013-12-30 01:53:00,34.7,34.4,29.74,West,270,7.8,-999.0,99,-99.99,,,0.02,Acu-Link.com,2013-12-30 06:53:00,
2013-12-30 02:08:00,34.9,34.6,29.74,West,270,4.7,-999.0,99,-99.99,,,0.02,Acu-Link.com,2013-12-30 07:08:00,
2013-12-30 02:24:00,35.1,34.8,29.75,SW,225,11.4,-999.0,99,-99.99,,,0.02,Acu-Link.com,2013-12-30 07:24:00,
2013-12-30 02:39:00,35.2,34.9,29.76,West,270,10.9,-999.0,99,-99.99,,,0.02,Acu-Link.com,2013-12-30 07:39:00,
2013-12-30 02:54:00,35.1,34.8,29.76,WSW,247,5.8,-999.0,99,-99.99,,,0.02,Acu-Link.com,2013-12-30 07:54:00,
2013-12-30 03:09:00,34.2,33.9,29.76,West,270,5.8,-999.0,99,-99.99,,,0.03,Acu-Link.com,2013-12-30 08:09:00,
2013-12-30 03:24:00,33.3,33.0,29.79,WSW,247,7.8,-999.0,99,-99.99,,,0.03,Acu-Link.com,2013-12-30 08:24:00,
2013-12-30 03:40:00,32.9,32.7,29.79,West,270,4.7,-999.0,99,-99.99,,,0.03,Acu-Link.com,2013-12-30 08:40:00,
2013-12-30 03:55:00,32.5,32.3,29.79,West,270,8.9,-999.0,99,-99.99,,,0.03,Acu-Link.com,2013-12-30 08:55:00,
2013-12-30 04:10:00,32.5,32.3,29.79,West,270,9.4,-999.0,99,-99.99,,,0.04,Acu-Link.com,2013-12-30 09:10:00,
2013-12-30 04:25:00,32.4,32.2,29.79,WNW,292,6.3,-999.0,99,-99.99,,,0.04,Acu-Link.com,2013-12-30 09:25:00,
2013-12-30 04:41:00,32.2,32.0,29.80,WSW,247,7.3,-999.0,99,-99.99,,,0.04,Acu-Link.com,2013-12-30 09:41:00,
2013-12-30 04:56:00,32.0,31.8,29.81,West,270,13.5,-999.0,99,-99.99,,,0.04,Acu-Link.com,2013-12-30 09:56:00,
2013-12-30 05:11:00,31.5,31.3,29.81,West,270,9.4,-999.0,99,-99.99,,,0.04,Acu-Link.com,2013-12-30 10:11:00,
2013-12-30 05:26:00,31.3,31.1,29.83,WSW,247,6.8,-999.0,99,-99.99,,,0.04,Acu-Link.com,2013-12-30 10:26:00,
2013-12-30 05:42:00,30.6,30.4,29.82,NW,315,9.4,-999.0,99,-99.99,,,0.04,Acu-Link.com,2013-12-30 10:42:00,
2013-12-30 05:57:00,29.7,29.5,29.83,NNE,22,3.7,-999.0,99,-99.99,,,0.04,Acu-Link.com,2013-12-30 10:57:00,
2013-12-30 06:12:00,29.3,29.1,29.84,West,270,5.8,-999.0,99,-99.99,,,0.04,Acu-Link.com,2013-12-30 11:12:00,
2013-12-30 06:27:00,28.8,28.6,29.85,West,270,11.9,-999.0,99,-99.99,,,0.04,Acu-Link.com,2013-12-30 11:27:00,
2013-12-30 06:43:00,28.4,28.2,29.86,West,270,5.8,-999.0,99,-99.99,,,0.04,Acu-Link.com,2013-12-30 11:43:00,
2013-12-30 06:58:00,28.0,27.8,29.86,West,270,8.9,-999.0,99,-99.99,,,0.04,Acu-Link.com,2013-12-30 11:58:00,
2013-12-30 07:13:00,27.9,27.7,29.88,West,270,9.4,-999.0,99,-99.99,,,0.04,Acu-Link.com,2013-12-30 12:13:00,
2013-12-30 07:28:00,27.1,26.9,29.88,WNW,292,9.9,-999.0,99,-99.99,,,0.04,Acu-Link.com,2013-12-30 12:28:00,
2013-12-30 07:43:00,27.3,27.1,29.89,West,270,5.3,-999.0,99,-99.99,,,0.04,Acu-Link.com,2013-12-30 12:43:00,
2013-12-30 07:59:00,27.0,26.8,29.90,NNW,337,7.8,-999.0,99,-99.99,,,0.04,Acu-Link.com,2013-12-30 12:59:00,
2013-12-30 08:14:00,26.8,26.6,29.90,West,270,4.7,-999.0,99,-99.99,,,0.04,Acu-Link.com,2013-12-30 13:14:00,
2013-12-30 08:29:00,26.2,26.0,29.90,West,270,6.8,-999.0,99,-99.99,,,0.04,Acu-Link.com,2013-12-30 13:29:00,
2013-12-30 08:44:00,26.1,25.9,29.91,West,270,9.4,-999.0,99,-99.99,,,0.04,Acu-Link.com,2013-12-30 13:44:00,
2013-12-30 09:03:00,25.3,25.1,29.93,West,270,6.3,-999.0,99,-99.99,,,0.04,Acu-Link.com,2013-12-30 14:03:00,
2013-12-30 09:18:00,25.0,24.8,29.94,West,270,7.3,-999.0,99,-99.99,,,0.04,Acu-Link.com,2013-12-30 14:18:00,
2013-12-30 09:34:00,25.0,24.8,29.94,West,270,8.9,-999.0,99,-99.99,,,0.04,Acu-Link.com,2013-12-30 14:34:00,
2013-12-30 09:49:00,25.0,24.8,29.94,WNW,292,6.8,-999.0,99,-99.99,,,0.04,Acu-Link.com,2013-12-30 14:49:00,
2013-12-30 10:04:00,24.8,24.6,29.95,WNW,292,7.3,-999.0,99,-99.99,,,0.04,Acu-Link.com,2013-12-30 15:04:00,
2013-12-30 10:19:00,24.8,24.6,29.95,West,270,5.8,-999.0,99,-99.99,,,0.04,Acu-Link.com,2013-12-30 15:19:00,
2013-12-30 10:34:00,24.6,24.4,29.96,WNW,292,5.3,-999.0,99,-99.99,,,0.04,Acu-Link.com,2013-12-30 15:34:00,
2013-12-30 10:50:00,24.6,24.4,29.96,West,270,6.8,-999.0,99,-99.99,,,0.04,Acu-Link.com,2013-12-30 15:50:00,
2013-12-30 11:07:00,24.8,24.6,29.95,West,270,5.8,-999.0,99,-99.99,,,0.04,Acu-Link.com,2013-12-30 16:07:00,
2013-12-30 11:22:00,24.6,24.4,29.96,West,270,6.8,-999.0,99,-99.99,,,0.04,Acu-Link.com,2013-12-30 16:22:00,
2013-12-30 11:37:00,24.4,24.2,29.96,North,0,5.3,-999.0,99,-99.99,,,0.04,Acu-Link.com,2013-12-30 16:37:00,
2013-12-30 11:52:00,23.9,23.7,29.96,SW,225,4.2,-999.0,99,-99.99,,,0.04,Acu-Link.com,2013-12-30 16:52:00,
2013-12-30 12:08:00,23.9,23.7,29.94,WNW,292,9.9,-999.0,99,-99.99,,,0.04,Acu-Link.com,2013-12-30 17:08:00,
2013-12-30 12:24:00,23.9,23.7,29.94,West,270,6.8,-999.0,99,-99.99,,,0.04,Acu-Link.com,2013-12-30 17:24:00,
2013-12-30 12:39:00,23.7,23.5,29.95,WNW,292,4.7,-999.0,99,-99.99,,,0.04,Acu-Link.com,2013-12-30 17:39:00,
2013-12-30 13:07:00,23.9,23.7,29.95,West,270,7.3,-999.0,99,-99.99,,,0.04,Acu-Link.com,2013-12-30 18:07:00,
2013-12-30 13:22:00,23.5,23.3,29.95,West,270,4.2,-999.0,99,-99.99,,,0.04,Acu-Link.com,2013-12-30 18:22:00,
2013-12-30 13:37:00,22.6,22.4,29.95,WNW,292,7.3,-999.0,99,-99.99,,,0.04,Acu-Link.com,2013-12-30 18:37:00,
2013-12-30 13:52:00,22.6,22.4,29.96,WSW,247,6.3,-999.0,99,-99.99,,,0.04,Acu-Link.com,2013-12-30 18:52:00,
2013-12-30 14:23:00,21.9,21.7,29.96,WNW,292,7.3,-999.0,99,-99.99,,,0.04,Acu-Link.com,2013-12-30 19:23:00,
2013-12-30 14:38:00,22.1,21.9,29.96,WNW,292,5.8,-999.0,99,-99.99,,,0.04,Acu-Link.com,2013-12-30 19:38:00,
2013-12-30 14:53:00,22.3,22.1,29.96,WNW,292,6.3,-999.0,99,-99.99,,,0.04,Acu-Link.com,2013-12-30 19:53:00,
2013-12-30 15:08:00,22.1,21.9,29.95,WNW,292,5.3,-999.0,99,-99.99,,,0.04,Acu-Link.com,2013-12-30 20:08:00,
2013-12-30 15:24:00,21.9,21.7,29.97,East,90,5.3,-999.0,99,-99.99,,,0.04,Acu-Link.com,2013-12-30 20:24:00,
2013-12-30 15:39:00,21.7,21.5,29.97,West,270,3.7,-999.0,99,-99.99,,,0.04,Acu-Link.com,2013-12-30 20:39:00,
2013-12-30 15:54:00,21.4,21.2,29.97,WNW,292,5.8,-999.0,99,-99.99,,,0.04,Acu-Link.com,2013-12-30 20:54:00,
2013-12-30 16:09:00,21.6,21.4,29.97,WSW,247,3.7,-999.0,99,-99.99,,,0.04,Acu-Link.com,2013-12-30 21:09:00,
2013-12-30 16:25:00,21.2,21.0,29.97,West,270,3.2,-999.0,99,-99.99,,,0.04,Acu-Link.com,2013-12-30 21:25:00,
2013-12-30 16:40:00,21.0,20.8,29.97,West,270,3.2,-999.0,99,-99.99,,,0.04,Acu-Link.com,2013-12-30 21:40:00,
2013-12-30 16:55:00,20.8,20.6,29.97,West,270,5.3,-999.0,99,-99.99,,,0.04,Acu-Link.com,2013-12-30 21:55:00,
2013-12-30 17:10:00,20.5,20.3,29.97,West,270,4.2,-999.0,99,-99.99,,,0.04,Acu-Link.com,2013-12-30 22:10:00,
2013-12-30 17:25:00,20.5,20.3,29.98,West,270,5.3,-999.0,99,-99.99,,,0.04,Acu-Link.com,2013-12-30 22:25:00,
2013-12-30 17:41:00,20.1,19.9,29.97,West,270,2.2,-999.0,99,-99.99,,,0.04,Acu-Link.com,2013-12-30 22:41:00,
2013-12-30 17:56:00,20.1,19.9,29.98,West,270,3.7,-999.0,99,-99.99,,,0.04,Acu-Link.com,2013-12-30 22:56:00,
2013-12-30 18:11:00,19.8,19.6,29.98,North,0,4.7,-999.0,99,-99.99,,,0.04,Acu-Link.com,2013-12-30 23:11:00,
2013-12-30 18:26:00,19.4,19.2,29.97,West,270,2.7,-999.0,99,-99.99,,,0.04,Acu-Link.com,2013-12-30 23:26:00,
2013-12-30 18:41:00,19.4,19.2,29.98,West,270,3.2,-999.0,99,-99.99,,,0.04,Acu-Link.com,2013-12-30 23:41:00,
2013-12-30 18:57:00,19.2,19.0,29.97,NNW,337,2.7,-999.0,99,-99.99,,,0.04,Acu-Link.com,2013-12-30 23:57:00,
2013-12-30 19:12:00,19.0,18.8,29.98,NNW,337,2.7,-999.0,99,-99.99,,,0.04,Acu-Link.com,2013-12-31 00:12:00,
2013-12-30 19:27:00,18.9,18.7,30.00,West,270,2.7,-999.0,99,-99.99,,,0.04,Acu-Link.com,2013-12-31 00:27:00,
2013-12-30 19:42:00,18.9,18.7,30.00,West,270,3.2,-999.0,99,-99.99,,,0.04,Acu-Link.com,2013-12-31 00:42:00,
2013-12-30 19:57:00,18.7,18.5,30.00,WNW,292,1.7,-999.0,99,-99.99,,,0.04,Acu-Link.com,2013-12-31 00:57:00,
2013-12-30 20:13:00,18.7,18.5,30.00,WNW,292,0.0,-999.0,99,-99.99,,,0.04,Acu-Link.com,2013-12-31 01:13:00,
2013-12-30 20:28:00,18.7,18.5,29.99,SW,225,0.0,-999.0,99,-99.99,,,0.04,Acu-Link.com,2013-12-31 01:28:00,
2013-12-30 20:43:00,18.7,18.5,30.00,West,270,0.0,-999.0,99,-99.99,,,0.04,Acu-Link.com,2013-12-31 01:43:00,
2013-12-30 20:59:00,18.7,18.5,30.00,West,270,0.0,-999.0,99,-99.99,,,0.04,Acu-Link.com,2013-12-31 01:59:00,
2013-12-30 21:14:00,18.9,18.7,29.99,West,270,2.2,-999.0,99,-99.99,,,0.04,Acu-Link.com,2013-12-31 02:14:00,
2013-12-30 21:29:00,18.7,18.5,29.99,West,270,2.7,-999.0,99,-99.99,,,0.04,Acu-Link.com,2013-12-31 02:29:00,
2013-12-30 21:44:00,18.9,18.7,30.00,West,270,2.2,-999.0,99,-99.99,,,0.04,Acu-Link.com,2013-12-31 02:44:00,
2013-12-30 21:59:00,18.9,18.7,29.99,WNW,292,1.7,-999.0,99,-99.99,,,0.04,Acu-Link.com,2013-12-31 02:59:00,
2013-12-30 22:15:00,18.9,18.7,29.99,West,270,1.7,-999.0,99,-99.99,,,0.04,Acu-Link.com,2013-12-31 03:15:00,
2013-12-30 22:30:00,18.7,18.5,29.99,West,270,2.2,-999.0,99,-99.99,,,0.04,Acu-Link.com,2013-12-31 03:30:00,
2013-12-30 22:45:00,18.9,18.7,29.99,WSW,247,1.7,-999.0,99,-99.99,,,0.04,Acu-Link.com,2013-12-31 03:45:00,
2013-12-30 23:00:00,19.4,19.2,29.98,SSW,202,2.7,-999.0,99,-99.99,,,0.04,Acu-Link.com,2013-12-31 04:00:00,
2013-12-30 23:16:00,19.4,19.2,29.97,West,270,2.2,-999.0,99,-99.99,,,0.04,Acu-Link.com,2013-12-31 04:16:00,
2013-12-30 23:31:00,19.4,19.2,29.97,NW,315,3.2,-999.0,99,-99.99,,,0.04,Acu-Link.com,2013-12-31 04:31:00,
2013-12-30 23:46:00,19.6,19.4,29.97,West,270,4.7,-999.0,99,-99.99,,,0.04,Acu-Link.com,2013-12-31 04:46:00,